This is the latest recevied weather packets stored in our database for station/object KI2K. If no packets are shown the sender has not sent any weather packets the latest 1 day(s).
| Time | Temp. | Humidity | Pressure | Rain* | Wind** | Luminosity | Snow |
|---|---|---|---|---|---|---|---|
| 1778033904 | 8.33° C | 99% | 1007.9 hPa | 6.1 mm | 0 m/s | 0 W/m² | - |
| 1778033600 | 8.33° C | 99% | 1008 hPa | 8.89 mm | 0 m/s | 0 W/m² | - |
| 1778033297 | 8.33° C | 99% | 1008.1 hPa | 11.94 mm | 0 m/s | 0 W/m² | - |
| 1778032995 | 8.33° C | 99% | 1008.5 hPa | 12.7 mm | 0.89 m/s, 305° | 0 W/m² | - |
| 1778032693 | 8.33° C | 99% | 1009.2 hPa | 6.1 mm | 0 m/s | 0 W/m² | - |
| 1778032390 | 8.33° C | 99% | 1009.1 hPa | 1.78 mm | 0.89 m/s, 285° | 0 W/m² | - |
| 1778032086 | 8.33° C | 99% | 1008.5 hPa | 1.27 mm | 0.45 m/s, 281° | 0 W/m² | - |
| 1778031783 | 8.33° C | 99% | 1007.5 hPa | 1.27 mm | 0.45 m/s, 288° | 0 W/m² | - |
| 1778031480 | 8.33° C | 99% | 1007.3 hPa | 1.78 mm | 0.45 m/s, 285° | 0 W/m² | - |
| 1778031177 | 8.33° C | 99% | 1007.5 hPa | 3.05 mm | 0 m/s | 0 W/m² | - |
| 1778030874 | 8.33° C | 99% | 1007 hPa | 6.1 mm | 0.45 m/s, 282° | 0 W/m² | - |
| 1778030571 | 8.33° C | 99% | 1007.1 hPa | 3.05 mm | 0 m/s | 0 W/m² | - |
| 1778030268 | 8.33° C | 99% | 1007.6 hPa | 0 mm | 0 m/s | 0 W/m² | - |
| 1778029964 | 8.33° C | 99% | 1007.7 hPa | 0 mm | 0 m/s | 0 W/m² | - |
| 1778029663 | 8.33° C | 99% | 1007.5 hPa | 0 mm | 0 m/s | 0 W/m² | - |
| 1778029359 | 8.33° C | 99% | 1007.3 hPa | 1.78 mm | 0 m/s | 0 W/m² | - |
| 1778029057 | 8.33° C | 99% | 1007.3 hPa | 1.78 mm | 0 m/s | 0 W/m² | - |
| 1778028753 | 8.33° C | 99% | 1007.4 hPa | 0 mm | 0 m/s | 0 W/m² | - |
| 1778028449 | 7.78° C | 99% | 1007.8 hPa | 1.78 mm | 0.45 m/s, 288° | 0 W/m² | - |
| 1778028147 | 7.78° C | 99% | 1007.7 hPa | 1.78 mm | 0.45 m/s, 289° | 0 W/m² | - |
| 1778027843 | 7.78° C | 99% | 1007.4 hPa | 1.27 mm | 0 m/s | 0 W/m² | - |
| 1778027540 | 7.78° C | 99% | 1007.8 hPa | 3.05 mm | 0 m/s | 0 W/m² | - |
| 1778027236 | 7.78° C | 99% | 1007.6 hPa | 3.05 mm | 0 m/s | 2 W/m² | - |
| 1778026932 | 7.78° C | 99% | 1007.7 hPa | 1.27 mm | 0 m/s | 1 W/m² | - |
| 1778026628 | 7.78° C | 99% | 1008 hPa | 1.78 mm | 0 m/s | 0 W/m² | - |
* Rain latest hour (hover to see other rain measurements)
** Current wind speed in m/s (hover to see current wind gust speed)